FW0923 Weather Reports


Display with metric or nautical units.
time (UTC)temp
F
wind
direction
speed
MPH
gust
MPH
rain 1hr
in
rain 24hr
in
rain mn
in
humidity
%
barometer
mb
20190424081321 64 355 0.0 0.0 0.00 0.00 0.00 86 1015.8
20190424080319 65 355 0.0 0.0 0.00 0.00 0.00 85 1016.0
20190424075317 65 355 0.0 0.0 0.00 0.00 0.00 85 1016.0
20190424074319 65 355 0.0 0.0 0.00 0.00 0.00 85 1016.0
20190424073318 65 355 0.0 0.0 0.00 0.00 0.00 85 1016.1
20190424072317 66 355 0.0 0.0 0.00 0.00 0.00 84 1016.2
20190424071319 66 355 0.0 0.0 0.00 0.00 0.00 84 1016.2
20190424070319 66 355 0.0 0.0 0.00 0.00 0.00 83 1016.1
20190424065317 66 355 0.0 0.0 0.00 0.00 0.00 83 1016.1
20190424064320 67 355 0.0 0.0 0.00 0.00 0.00 83 1016.2
20190424063317 67 355 0.0 0.0 0.00 0.00 0.00 82 1016.2
20190424062316 67 355 0.0 0.0 0.00 0.00 0.00 82 1016.2
20190424061316 67 355 0.0 0.0 0.00 0.00 0.00 82 1016.2
20190424060318 67 355 0.0 0.0 0.00 0.00 0.00 81 1016.4
20190424055315 67 355 0.0 0.0 0.00 0.00 0.00 81 1016.4
20190424054315 67 355 0.0 0.0 0.00 0.00 0.00 81 1016.5
20190424053318 67 355 0.0 0.0 0.00 0.00 0.00 80 1016.6
20190424052318 67 355 0.0 0.0 0.00 0.00 0.00 80 1016.7
20190424051316 67 355 0.0 0.0 0.00 0.00 0.00 79 1016.6
20190424050319 68 355 0.0 0.0 0.00 0.00 0.00 79 1016.7
20190424045316 68 355 0.0 0.0 0.00 0.00 0.00 79 1016.7
20190424044315 68 346 0.0 0.0 0.00 0.00 0.00 79 1016.7
20190424043318 68 346 0.0 0.0 0.00 0.00 0.00 79 1016.7
20190424042317 68 346 0.0 0.0 0.00 0.00 0.00 79 1016.9
20190424041316 69 346 0.0 0.0 0.00 0.00 0.00 79 1017.1
20190424040316 69 346 0.0 0.0 0.00 0.00 0.00 79 1017.2
20190424035318 69 346 0.0 0.0 0.00 0.00 0.00 79 1017.2
20190424034318 69 346 0.0 0.0 0.00 0.00 0.00 79 1017.2
20190424033317 69 346 0.0 0.0 0.00 0.00 0.00 78 1017.1
20190424032320 69 346 0.0 0.0 0.00 0.00 0.00 77 1017.0
20190424031320 69 346 0.0 0.0 0.00 0.00 0.00 77 1017.1
20190424030320 70 346 0.0 0.0 0.00 0.00 0.00 76 1017.0
20190424025322 70 346 0.0 0.0 0.00 0.00 0.00 75 1016.9
20190424024321 71 346 0.0 0.0 0.00 0.00 0.00 75 1017.0
20190424023320 71 346 0.0 0.0 0.00 0.00 0.00 75 1017.0
20190424022323 71 346 0.0 0.0 0.00 0.00 0.00 75 1017.1
20190424021322 71 346 0.0 0.0 0.00 0.00 0.00 75 1017.2
20190424020320 72 346 0.0 0.0 0.00 0.00 0.00 75 1017.0
20190424015317 72 346 0.0 0.0 0.00 0.00 0.00 74 1016.9
20190424014319 72 346 0.0 0.0 0.00 0.00 0.00 74 1016.8
20190424013319 72 346 0.0 0.0 0.00 0.00 0.00 74 1016.6
20190424012318 73 346 0.0 0.0 0.00 0.00 0.00 75 1016.5
20190424011321 73 346 0.0 0.0 0.00 0.00 0.00 74 1016.5
20190424010320 73 346 0.0 0.0 0.00 0.00 0.00 73 1016.5
20190424005318 73 346 0.0 2.0 0.00 0.00 0.00 73 1016.4
20190424004322 73 346 0.0 0.0 0.00 0.00 0.00 72 1016.5
20190424003322 73 346 0.0 2.0 0.00 0.00 0.00 72 1016.4
20190424002321 74 346 0.0 2.0 0.00 0.00 0.00 71 1016.4
20190424001325 74 346 0.0 4.0 0.00 0.00 0.00 71 1016.4
20190424000325 74 350 0.0 3.0 0.00 0.00 0.00 69 1016.3
20190423235323 75 350 1.0 3.0 0.00 0.00 0.00 67 1016.3
20190423234324 75 342 0.0 0.0 0.00 0.00 0.00 67 1016.3
20190423233327 75 342 0.0 0.0 0.00 0.00 0.00 66 1016.3
20190423232327 76 342 0.0 1.0 0.00 0.00 0.00 65 1016.3
20190423231325 76 329 0.0 4.0 0.00 0.00 0.00 65 1016.3
20190423230328 77 340 0.0 0.0 0.00 0.00 0.00 64 1016.3
20190423225324 77 340 0.0 0.0 0.00 0.00 0.00 63 1016.2
20190423224324 77 340 0.0 0.0 0.00 0.00 0.00 59 1016.1
20190423223327 78 342 0.0 0.0 0.00 0.00 0.00 59 1016.1
20190423222326 78 305 0.0 0.0 0.00 0.00 0.00 58 1016.1
20190423221325 78 329 0.0 0.0 0.00 0.00 0.00 57 1016.1
20190423220329 79 340 0.0 2.0 0.00 0.00 0.00 57 1016.2
20190423215327 79 342 0.0 3.0 0.00 0.00 0.00 55 1016.3
20190423214327 80 340 0.0 3.0 0.00 0.00 0.00 55 1016.3
20190423213324 80 324 0.0 3.0 0.00 0.00 0.00 55 1016.1
20190423212327 80 341 0.0 3.0 0.00 0.00 0.00 55 1016.2
20190423211327 80 344 0.0 0.0 0.00 0.00 0.00 53 1016.3
20190423210327 81 349 0.0 5.0 0.00 0.00 0.00 53 1016.3
20190423205329 81 302 0.0 3.0 0.00 0.00 0.00 51 1016.4
20190423204327 82 338 0.0 4.0 0.00 0.00 0.00 50 1016.4
20190423203327 82 317 0.0 4.0 0.00 0.00 0.00 50 1016.4
20190423202331 83 334 0.0 4.0 0.00 0.00 0.00 48 1016.4
20190423201331 84 329 0.0 0.0 0.00 0.00 0.00 47 1016.6
20190423200331 84 327 0.0 5.0 0.00 0.00 0.00 45 1016.8
20190423195313 84 327 0.0 0.0 0.00 0.00 0.00 45 1016.7
20190423194313 84 303 0.0 0.0 0.00 0.00 0.00 46 1016.8
20190423193312 84 279 0.0 0.0 0.00 0.00 0.00 49 1017.0
20190423192315 84 248 1.0 3.0 0.00 0.00 0.00 52 1017.2
20190423191314 84 265 0.0 3.0 0.00 0.00 0.00 52 1017.2
20190423190314 84 287 1.0 6.0 0.00 0.00 0.00 51 1017.3
20190423185331 85 245 0.0 2.0 0.00 0.00 0.00 50 1017.3
20190423184314 84 276 0.0 7.0 0.00 0.00 0.00 50 1017.4
20190423183312 86 121 0.0 3.0 0.00 0.00 0.00 39 1017.5
20190423182331 86 167 0.0 5.0 0.00 0.00 0.00 39 1017.6
20190423181313 86 119 0.0 2.0 0.00 0.00 0.00 38 1017.9
20190423180313 86 171 0.0 4.0 0.00 0.00 0.00 38 1018.0
20190423175328 86 35 0.0 0.0 0.00 0.00 0.00 38 1018.1
20190423174311 85 61 0.0 2.0 0.00 0.00 0.00 39 1018.3
20190423173330 84 128 0.0 6.0 0.00 0.00 0.00 39 1018.3
20190423172329 85 123 0.0 0.0 0.00 0.00 0.00 40 1018.5
20190423171311 83 269 0.0 0.0 0.00 0.00 0.00 43 1018.6
20190423170330 82 113 0.0 7.0 0.00 0.00 0.00 42 1018.8
20190423165327 83 65 0.0 0.0 0.00 0.00 0.00 43 1018.9
20190423164325 83 87 0.0 1.0 0.00 0.00 0.00 44 1019.0
20190423163328 82 119 0.0 7.0 0.00 0.00 0.00 41 1019.1
20190423162328 82 103 0.0 7.0 0.00 0.00 0.00 40 1019.3
20190423161327 82 123 0.0 4.0 0.00 0.00 0.00 44 1019.3
20190423160331 82 105 0.0 4.0 0.00 0.00 0.00 44 1019.4
20190423155328 82 100 0.0 1.0 0.00 0.00 0.00 45 1019.5
20190423154327 81 88 0.0 2.0 0.00 0.00 0.00 45 1019.6
20190423153329 80 111 0.0 3.0 0.00 0.00 0.00 47 1019.7
20190423152328 79 111 1.0 4.0 0.00 0.00 0.00 50 1019.8
20190423151327 79 117 0.0 0.0 0.00 0.00 0.00 50 1019.8
20190423150325 79 142 0.0 0.0 0.00 0.00 0.00 49 1019.8
20190423145326 78 140 0.0 0.0 0.00 0.00 0.00 52 1019.8
20190423144325 78 136 0.0 0.0 0.00 0.00 0.00 54 1019.8
20190423143325 78 138 0.0 0.0 0.00 0.00 0.00 55 1019.8
20190423142327 77 138 0.0 0.0 0.00 0.00 0.00 60 1019.7
20190423141327 77 190 0.0 0.0 0.00 0.00 0.00 61 1019.7
20190423140325 75 158 0.0 4.0 0.00 0.00 0.00 63 1019.6
20190423135327 73 123 0.0 2.0 0.00 0.00 0.00 69 1019.5
20190423134327 72 121 0.0 2.0 0.00 0.00 0.00 72 1019.6
20190423133325 72 132 0.0 2.0 0.00 0.00 0.00 71 1019.6
20190423132329 72 128 0.0 0.0 0.00 0.00 0.00 73 1019.5
20190423131328 72 126 0.0 0.0 0.00 0.00 0.00 72 1019.5
20190423130327 71 153 0.0 0.0 0.00 0.00 0.00 75 1019.5
20190423125324 70 145 0.0 0.0 0.00 0.00 0.00 78 1019.4
20190423124327 67 11 0.0 0.0 0.00 0.00 0.00 83 1019.4
20190423123327 65 5 0.0 0.0 0.00 0.00 0.00 87 1019.3
20190423122326 63 5 0.0 0.0 0.00 0.00 0.00 90 1019.3
20190423121329 61 5 0.0 0.0 0.00 0.00 0.00 91 1019.4
20190423120328 60 5 0.0 0.0 0.00 0.00 0.00 91 1019.3
20190423115325 60 5 0.0 0.0 0.00 0.00 0.00 91 1019.3
20190423114328 59 5 0.0 0.0 0.00 0.00 0.00 91 1019.2
20190423113328 58 5 0.0 0.0 0.00 0.00 0.00 90 1019.1
20190423112326 58 5 0.0 0.0 0.00 0.00 0.00 90 1019.0
20190423111329 58 5 0.0 0.0 0.00 0.00 0.00 90 1019.1
20190423110329 58 5 0.0 0.0 0.00 0.00 0.00 90 1018.9
20190423105326 58 5 0.0 0.0 0.00 0.00 0.00 90 1018.8
20190423104326 59 5 0.0 0.0 0.00 0.00 0.00 90 1018.6
20190423103350 59 5 0.0 0.0 0.00 0.00 0.00 89 1018.6
20190423102329 59 5 0.0 0.0 0.00 0.00 0.00 89 1018.5
20190423101329 59 5 0.0 0.0 0.00 0.00 0.00 89 1018.4
20190423100332 59 5 0.0 0.0 0.00 0.00 0.00 88 1018.3
20190423095331 59 5 0.0 0.0 0.00 0.00 0.00 88 1018.2
20190423094332 59 5 0.0 0.0 0.00 0.00 0.00 88 1018.2
20190423092332 59 5 0.0 0.0 0.00 0.00 0.00 86 1018.1
20190423091331 60 5 0.0 0.0 0.00 0.00 0.00 86 1018.1
20190423090314 60 5 0.0 0.0 0.00 0.00 0.00 86 1018.1
20190423085330 60 5 0.0 0.0 0.00 0.00 0.00 85 1018.1
20190423084328 60 5 0.0 0.0 0.00 0.00 0.00 85 1018.2
20190423083326 60 5 0.0 0.0 0.00 0.00 0.00 85 1018.3
20190423082329 61 5 0.0 0.0 0.00 0.00 0.00 84 1018.2